Terug naar catalogus

THOR ABLESTAR DEB

ActiefPO
NORAD 2620·DEBRIS·🇺🇸 United States

Gelanceerd Dec 5, 1963 vanaf Vandenberg Space Force Base

Loading…

Volgende Passages (komende 24 uur)

TLE

VersSource: Space-Track

Epoch: Sep 14, 2026, 11:06 UTC

1 02620U 63049H   26257.46259568  .00000185  00000-0  23601-3 0  9998
2 02620  89.9131  71.7080 0014436 186.8128 201.7569 13.59790244102522

Volg THOR ABLESTAR DEB in realtime met AllMySat

Download on the App Store